GEFSCGP_prec_meanprecacc_222.txt.gz
Total_Precipitation_Accumulation
0.00 0.01 0.01 0.01 0.02 0.05 0.06 0.09 0.18 0.25 0.16 0.19 0.33 0.52 0.73 0.91 1.06 1.13 1.29 1.28 1.47 1.73 1.88 2.26 2.61 3.05 3.50 4.01 4.75 5.37 5.79 5.77 5.57 5.19 4.80 4.52 4.04 3.73 3.47 3.18 2.95 2.73 2.48 2.38
0.01 0.02 0.02 0.03 0.03 0.04 0.07 0.11 0.23 0.25 0.16 0.17 0.33 0.56 0.84 0.94 0.91 0.94 1.16 1.27 1.35 1.54 1.84 2.18 2.69 2.98 3.32 3.84 4.40 4.81 4.80 4.47 4.34 4.32 4.21 3.95 3.96 3.81 3.67 3.41 3.18 2.79 2.61 2.47
0.03 0.04 0.02 0.03 0.04 0.05 0.07 0.10 0.16 0.21 0.23 0.25 0.36 0.71 0.99 1.03 0.90 0.85 0.88 1.00 1.13 1.28 1.48 1.82 2.37 2.67 2.85 3.31 3.66 3.68 3.56 3.39 3.43 3.48 3.44 3.52 3.73 3.73 3.68 3.52 3.24 2.95 2.80 2.68
0.02 0.03 0.03 0.04 0.06 0.06 0.10 0.07 0.08 0.11 0.21 0.43 0.49 0.89 1.20 1.29 1.20 0.98 0.88 1.00 1.08 1.19 1.25 1.54 1.86 2.08 2.33 2.55 2.69 2.68 2.77 2.78 2.80 2.83 2.82 2.74 2.76 2.94 3.15 3.36 3.40 3.34 3.11 2.86
0.03 0.04 0.05 0.05 0.06 0.07 0.07 0.06 0.07 0.11 0.16 0.31 0.43 0.70 1.14 1.41 1.56 1.23 0.99 0.90 0.87 1.03 1.27 1.46 1.56 1.71 1.80 1.82 1.94 2.01 2.30 2.61 2.71 2.76 2.85 2.75 2.47 2.45 2.50 2.64 2.78 2.79 2.78 2.62
0.04 0.05 0.05 0.05 0.05 0.07 0.07 0.11 0.18 0.27 0.39 0.62 0.59 0.65 1.04 1.29 1.43 1.15 0.96 0.89 0.77 0.79 0.98 1.19 1.44 1.52 1.46 1.43 1.59 1.81 2.11 2.48 2.69 2.74 2.70 2.66 2.56 2.51 2.43 2.44 2.48 2.36 2.34 2.28
0.15 0.13 0.10 0.06 0.07 0.08 0.09 0.16 0.51 0.87 1.18 1.21 0.71 0.69 0.94 0.98 0.92 0.93 0.81 0.76 0.80 0.74 0.73 0.74 0.93 1.16 1.13 1.10 1.25 1.51 1.70 1.99 2.21 2.31 2.30 2.23 2.33 2.43 2.31 2.18 2.11 2.04 1.90 1.81
0.19 0.23 0.14 0.09 0.07 0.07 0.08 0.12 0.37 0.63 0.81 0.93 0.75 1.10 1.24 0.92 0.77 0.68 0.57 0.54 0.61 0.58 0.53 0.51 0.58 0.72 0.94 0.95 1.00 1.11 1.35 1.55 1.74 1.83 1.94 2.04 2.21 2.30 2.25 2.40 2.22 2.07 1.78 1.64
0.08 0.11 0.10 0.09 0.09 0.09 0.09 0.08 0.13 0.22 0.37 0.63 0.89 1.12 1.11 0.94 0.89 0.70 0.52 0.44 0.45 0.43 0.41 0.43 0.50 0.68 0.70 0.69 0.75 0.86 1.08 1.26 1.42 1.57 1.73 1.80 1.79 1.80 1.93 2.12 2.14 1.99 1.90 1.71
0.05 0.05 0.07 0.09 0.10 0.11 0.10 0.09 0.11 0.17 0.30 0.49 0.80 1.16 1.23 1.14 1.02 0.85 0.74 0.54 0.43 0.41 0.40 0.41 0.44 0.52 0.51 0.50 0.65 0.87 1.05 1.07 1.28 1.58 1.76 1.66 1.65 1.57 1.70 1.78 1.83 1.89 1.84 1.82
0.04 0.04 0.06 0.09 0.12 0.14 0.14 0.12 0.11 0.14 0.17 0.31 0.68 0.90 0.80 0.88 0.85 0.82 0.70 0.59 0.51 0.45 0.45 0.45 0.45 0.44 0.55 0.50 0.59 0.76 0.88 1.00 1.28 1.59 1.79 1.78 1.63 1.62 1.74 1.68 1.66 1.78 1.81 1.79
0.05 0.04 0.07 0.11 0.16 0.16 0.15 0.14 0.14 0.20 0.19 0.22 0.37 0.61 0.49 0.59 0.71 0.73 0.54 0.48 0.45 0.36 0.38 0.36 0.33 0.38 0.38 0.39 0.51 0.80 1.12 1.46 1.61 1.85 2.10 2.09 1.80 1.63 1.57 1.46 1.47 1.66 1.84 1.87
0.05 0.05 0.11 0.28 0.32 0.24 0.17 0.13 0.14 0.16 0.15 0.17 0.37 0.58 0.46 0.51 0.62 0.62 0.52 0.44 0.43 0.44 0.39 0.39 0.35 0.43 0.40 0.39 0.43 0.57 0.71 1.04 1.35 1.66 1.92 1.86 1.62 1.47 1.43 1.44 1.50 1.65 1.78 1.79
0.06 0.05 0.09 0.25 0.31 0.31 0.26 0.19 0.16 0.13 0.15 0.20 0.26 0.49 0.51 0.56 0.49 0.51 0.44 0.41 0.49 0.58 0.50 0.45 0.43 0.41 0.41 0.42 0.40 0.49 0.55 0.62 0.82 1.21 1.48 1.50 1.37 1.32 1.35 1.41 1.43 1.43 1.47 1.54
0.07 0.06 0.05 0.06 0.15 0.21 0.23 0.21 0.17 0.13 0.12 0.24 0.27 0.35 0.45 0.58 0.54 0.52 0.50 0.42 0.42 0.50 0.49 0.47 0.46 0.50 0.53 0.59 0.58 0.56 0.57 0.58 0.72 1.10 1.32 1.29 1.27 1.28 1.25 1.25 1.33 1.40 1.46 1.51
0.10 0.10 0.09 0.10 0.14 0.15 0.16 0.19 0.17 0.11 0.10 0.10 0.15 0.29 0.34 0.50 0.59 0.61 0.59 0.54 0.51 0.52 0.47 0.44 0.39 0.49 0.58 0.64 0.65 0.62 0.61 0.63 0.74 1.00 1.22 1.22 1.20 1.18 1.13 1.18 1.27 1.44 1.54 1.69
0.16 0.15 0.15 0.15 0.19 0.17 0.24 0.20 0.17 0.15 0.14 0.14 0.22 0.35 0.33 0.39 0.51 0.59 0.62 0.58 0.53 0.55 0.46 0.41 0.45 0.59 0.79 0.71 0.69 0.73 0.67 0.66 0.79 0.99 1.17 1.26 1.23 1.25 1.23 1.21 1.37 1.57 1.72 1.87
0.29 0.27 0.25 0.21 0.25 0.36 0.28 0.21 0.22 0.24 0.27 0.28 0.31 0.35 0.37 0.49 0.55 0.66 0.83 0.69 0.54 0.56 0.57 0.60 0.58 0.67 0.74 0.70 0.72 0.75 0.74 0.73 0.84 1.04 1.25 1.34 1.29 1.34 1.43 1.43 1.52 1.74 1.95 2.08
0.34 0.39 0.36 0.31 0.34 0.41 0.37 0.29 0.34 0.37 0.42 0.44 0.47 0.41 0.46 0.52 0.62 0.72 0.70 0.67 0.71 0.70 0.68 0.72 0.78 0.80 0.86 0.87 0.83 0.80 0.87 0.91 1.00 1.09 1.27 1.38 1.43 1.52 1.54 1.58 1.76 1.97 2.16 2.20
0.36 0.45 0.49 0.44 0.52 0.58 0.57 0.42 0.36 0.43 0.72 0.59 0.61 0.60 0.54 0.56 0.80 0.87 0.73 0.67 0.68 0.77 0.85 0.81 0.86 0.88 0.91 0.94 0.98 0.99 1.05 1.18 1.33 1.42 1.49 1.67 1.84 2.00 2.08 2.13 2.20 2.25 2.32 2.24
0.64 0.61 0.60 0.64 0.75 0.69 0.53 0.47 0.42 0.80 1.12 0.84 0.81 0.79 0.70 0.81 0.90 0.88 0.76 0.70 0.65 0.68 0.79 0.83 0.82 0.90 0.98 0.99 1.10 1.25 1.33 1.44 1.57 1.71 1.79 1.98 2.27 2.44 2.44 2.45 2.40 2.32 2.33 2.34
0.85 0.81 0.81 0.86 1.08 1.13 0.62 0.58 0.89 1.12 0.94 0.97 1.00 0.98 0.91 0.88 0.93 0.94 0.90 0.74 0.66 0.67 0.73 0.81 0.85 0.89 1.03 1.25 1.43 1.66 1.75 1.70 1.79 1.95 2.10 2.29 2.52 2.46 2.38 2.56 2.50 2.47 2.54 2.52
0.90 0.96 1.04 1.12 1.31 1.11 0.76 0.88 1.07 1.05 1.00 1.02 1.02 0.97 0.87 0.82 0.95 0.90 0.82 0.79 0.66 0.64 0.71 0.78 0.85 0.95 1.07 1.31 1.66 1.90 1.97 2.07 2.09 2.15 2.23 2.29 2.39 2.57 2.73 2.80 2.69 2.62 2.60 2.54
1.05 0.97 1.13 1.33 1.42 1.20 1.05 1.03 0.99 1.03 1.03 0.97 0.90 0.85 0.86 0.80 0.80 0.79 0.74 0.72 0.68 0.68 0.75 0.79 0.86 1.03 1.25 1.44 1.72 1.87 1.92 1.97 2.00 2.02 2.01 2.08 2.22 2.37 2.46 2.70 2.76 2.67 2.55 2.48
1.17 1.11 1.31 1.67 1.74 1.62 1.50 1.27 1.11 1.08 1.02 1.03 0.99 0.92 0.88 0.82 0.76 0.71 0.70 0.68 0.68 0.68 0.78 0.84 0.92 1.03 1.16 1.36 1.54 1.62 1.77 1.85 1.95 1.96 1.91 1.90 1.92 2.04 2.13 2.23 2.35 2.33 2.32 2.14
1.23 1.31 1.54 1.88 1.66 1.62 1.76 1.51 1.30 1.22 1.19 1.23 1.26 1.22 1.07 0.93 0.86 0.81 0.78 0.70 0.66 0.64 0.73 0.84 0.95 1.06 1.15 1.31 1.51 1.59 1.71 1.80 1.84 1.82 1.75 1.76 1.78 1.85 1.90 1.90 1.85 1.69 1.62 1.48

GEFSCGP_prec_meanprecacc_228.txt.gz
Total_Precipitation_Accumulation
0.00 0.01 0.01 0.02 0.02 0.06 0.07 0.09 0.19 0.25 0.16 0.19 0.34 0.53 0.74 0.91 1.06 1.13 1.29 1.28 1.47 1.73 1.88 2.26 2.61 3.07 3.51 4.03 4.76 5.38 5.80 5.78 5.60 5.26 4.89 4.61 4.10 3.77 3.50 3.22 2.98 2.77 2.52 2.44
0.01 0.02 0.02 0.03 0.03 0.04 0.08 0.12 0.24 0.26 0.17 0.17 0.34 0.58 0.85 0.94 0.91 0.94 1.16 1.27 1.35 1.54 1.84 2.18 2.69 2.99 3.34 3.85 4.40 4.82 4.82 4.49 4.37 4.39 4.29 4.04 4.03 3.85 3.70 3.43 3.20 2.81 2.63 2.51
0.03 0.04 0.02 0.03 0.04 0.05 0.07 0.11 0.17 0.22 0.24 0.26 0.36 0.74 1.02 1.03 0.90 0.85 0.88 1.01 1.13 1.28 1.49 1.82 2.37 2.68 2.87 3.33 3.67 3.70 3.59 3.42 3.47 3.53 3.51 3.60 3.80 3.79 3.72 3.55 3.27 2.98 2.82 2.71
0.02 0.03 0.03 0.04 0.06 0.06 0.10 0.08 0.09 0.12 0.21 0.44 0.49 0.91 1.23 1.30 1.21 0.98 0.88 1.00 1.08 1.19 1.25 1.54 1.86 2.08 2.34 2.56 2.70 2.69 2.78 2.81 2.82 2.87 2.90 2.82 2.84 3.01 3.20 3.40 3.44 3.37 3.12 2.87
0.03 0.04 0.05 0.05 0.06 0.07 0.07 0.06 0.08 0.12 0.18 0.32 0.44 0.70 1.17 1.44 1.58 1.24 0.99 0.90 0.87 1.03 1.27 1.46 1.56 1.71 1.80 1.82 1.94 2.01 2.31 2.63 2.73 2.80 2.91 2.81 2.53 2.51 2.54 2.67 2.81 2.82 2.81 2.64
0.04 0.05 0.05 0.05 0.05 0.07 0.08 0.11 0.19 0.28 0.41 0.64 0.61 0.66 1.06 1.32 1.47 1.17 0.97 0.89 0.78 0.79 0.98 1.19 1.44 1.52 1.46 1.43 1.60 1.82 2.12 2.50 2.72 2.79 2.74 2.70 2.59 2.55 2.46 2.48 2.52 2.39 2.37 2.30
0.15 0.13 0.10 0.06 0.07 0.08 0.09 0.16 0.53 0.91 1.23 1.23 0.71 0.70 0.94 0.99 0.93 0.94 0.81 0.76 0.80 0.74 0.73 0.74 0.93 1.17 1.13 1.11 1.27 1.54 1.72 2.02 2.24 2.34 2.34 2.26 2.35 2.46 2.34 2.22 2.16 2.08 1.94 1.85
0.19 0.23 0.14 0.09 0.07 0.07 0.08 0.13 0.39 0.67 0.85 0.96 0.77 1.10 1.25 0.92 0.77 0.68 0.57 0.54 0.61 0.58 0.53 0.51 0.58 0.73 0.94 0.96 1.02 1.13 1.37 1.58 1.77 1.85 1.97 2.08 2.23 2.34 2.28 2.43 2.24 2.09 1.80 1.65
0.08 0.11 0.10 0.09 0.09 0.09 0.09 0.08 0.14 0.24 0.38 0.65 0.91 1.14 1.13 0.94 0.89 0.70 0.52 0.45 0.45 0.43 0.42 0.43 0.50 0.69 0.70 0.71 0.77 0.87 1.10 1.29 1.45 1.59 1.75 1.83 1.80 1.82 1.95 2.13 2.16 2.01 1.91 1.72
0.05 0.05 0.07 0.09 0.10 0.11 0.10 0.09 0.11 0.19 0.33 0.51 0.82 1.18 1.25 1.15 1.02 0.85 0.74 0.54 0.43 0.41 0.40 0.41 0.44 0.52 0.52 0.52 0.65 0.88 1.06 1.09 1.31 1.61 1.78 1.68 1.66 1.57 1.72 1.81 1.85 1.91 1.86 1.83
0.04 0.04 0.07 0.09 0.12 0.14 0.14 0.12 0.11 0.15 0.20 0.34 0.71 0.93 0.83 0.89 0.85 0.82 0.70 0.60 0.51 0.45 0.45 0.45 0.45 0.45 0.56 0.50 0.60 0.77 0.89 1.02 1.31 1.61 1.80 1.79 1.64 1.62 1.75 1.69 1.67 1.80 1.83 1.81
0.05 0.05 0.07 0.11 0.16 0.16 0.15 0.14 0.15 0.21 0.21 0.24 0.39 0.62 0.50 0.60 0.72 0.73 0.54 0.48 0.45 0.36 0.38 0.36 0.33 0.39 0.40 0.40 0.52 0.81 1.12 1.47 1.63 1.87 2.10 2.10 1.81 1.64 1.58 1.47 1.49 1.67 1.86 1.88
0.05 0.06 0.12 0.29 0.32 0.24 0.17 0.13 0.14 0.16 0.16 0.18 0.39 0.60 0.47 0.52 0.62 0.62 0.52 0.44 0.44 0.45 0.40 0.39 0.36 0.44 0.42 0.40 0.44 0.57 0.72 1.04 1.35 1.67 1.93 1.87 1.64 1.48 1.45 1.46 1.52 1.66 1.79 1.80
0.06 0.05 0.09 0.25 0.32 0.31 0.26 0.20 0.16 0.13 0.15 0.20 0.27 0.51 0.53 0.58 0.51 0.52 0.44 0.41 0.49 0.58 0.50 0.46 0.44 0.42 0.42 0.43 0.42 0.51 0.57 0.64 0.84 1.23 1.50 1.51 1.38 1.33 1.36 1.42 1.44 1.44 1.48 1.55
0.07 0.06 0.05 0.06 0.15 0.21 0.23 0.21 0.18 0.13 0.12 0.24 0.27 0.36 0.46 0.61 0.56 0.53 0.50 0.42 0.43 0.51 0.50 0.48 0.47 0.52 0.54 0.59 0.58 0.58 0.59 0.61 0.76 1.14 1.34 1.31 1.27 1.28 1.25 1.26 1.34 1.41 1.47 1.52
0.10 0.10 0.09 0.10 0.14 0.15 0.16 0.19 0.17 0.12 0.11 0.10 0.15 0.29 0.34 0.53 0.62 0.62 0.60 0.54 0.51 0.52 0.48 0.45 0.40 0.50 0.59 0.64 0.65 0.63 0.63 0.66 0.77 1.03 1.23 1.23 1.21 1.19 1.14 1.19 1.29 1.45 1.55 1.71
0.16 0.15 0.15 0.15 0.19 0.17 0.24 0.20 0.17 0.15 0.14 0.14 0.23 0.36 0.35 0.40 0.53 0.63 0.64 0.58 0.53 0.55 0.46 0.42 0.47 0.59 0.79 0.71 0.71 0.76 0.69 0.68 0.81 1.01 1.18 1.26 1.23 1.26 1.24 1.22 1.38 1.58 1.74 1.89
0.29 0.27 0.25 0.21 0.25 0.36 0.28 0.21 0.22 0.24 0.28 0.28 0.31 0.35 0.38 0.49 0.56 0.67 0.84 0.70 0.54 0.57 0.58 0.62 0.59 0.68 0.75 0.72 0.75 0.77 0.76 0.75 0.85 1.05 1.26 1.35 1.30 1.35 1.44 1.44 1.53 1.75 1.96 2.10
0.34 0.39 0.36 0.31 0.34 0.41 0.37 0.29 0.34 0.37 0.42 0.44 0.48 0.42 0.46 0.52 0.62 0.72 0.70 0.68 0.72 0.70 0.69 0.74 0.79 0.82 0.89 0.91 0.86 0.83 0.89 0.93 1.01 1.10 1.27 1.38 1.44 1.52 1.55 1.59 1.77 1.99 2.17 2.21
0.36 0.45 0.49 0.44 0.52 0.58 0.57 0.42 0.36 0.43 0.73 0.59 0.61 0.60 0.54 0.57 0.81 0.88 0.74 0.68 0.68 0.78 0.85 0.82 0.87 0.90 0.94 0.97 1.01 1.01 1.07 1.20 1.34 1.43 1.50 1.68 1.85 2.01 2.09 2.14 2.21 2.26 2.33 2.25
0.64 0.61 0.60 0.65 0.76 0.70 0.55 0.48 0.42 0.80 1.13 0.84 0.81 0.79 0.70 0.81 0.91 0.89 0.76 0.71 0.65 0.68 0.80 0.85 0.86 0.94 1.02 1.03 1.13 1.28 1.36 1.46 1.59 1.72 1.79 1.99 2.28 2.45 2.45 2.47 2.42 2.34 2.35 2.36
0.86 0.81 0.82 0.87 1.10 1.15 0.63 0.59 0.89 1.13 0.94 0.97 1.00 0.98 0.91 0.88 0.94 0.94 0.90 0.74 0.66 0.67 0.74 0.84 0.89 0.93 1.08 1.30 1.47 1.70 1.78 1.75 1.83 1.97 2.12 2.31 2.54 2.49 2.43 2.60 2.53 2.49 2.56 2.54
0.90 0.97 1.04 1.13 1.33 1.13 0.77 0.89 1.07 1.05 1.00 1.02 1.02 0.97 0.87 0.82 0.95 0.91 0.82 0.80 0.67 0.65 0.72 0.81 0.89 0.99 1.13 1.37 1.71 1.94 2.00 2.10 2.12 2.18 2.30 2.36 2.44 2.61 2.77 2.83 2.72 2.63 2.62 2.55
1.06 0.97 1.14 1.35 1.43 1.21 1.06 1.04 1.00 1.03 1.03 0.97 0.90 0.86 0.86 0.81 0.82 0.81 0.75 0.73 0.69 0.69 0.77 0.81 0.89 1.06 1.30 1.50 1.79 1.93 1.96 1.99 2.02 2.05 2.05 2.13 2.26 2.40 2.49 2.73 2.79 2.70 2.57 2.50
1.19 1.12 1.32 1.68 1.76 1.64 1.52 1.30 1.13 1.09 1.03 1.03 0.99 0.92 0.89 0.83 0.77 0.73 0.72 0.71 0.70 0.70 0.79 0.87 0.95 1.07 1.21 1.41 1.60 1.68 1.81 1.87 1.97 1.98 1.93 1.92 1.95 2.07 2.17 2.27 2.38 2.35 2.34 2.16
1.26 1.34 1.56 1.91 1.68 1.65 1.78 1.55 1.33 1.24 1.20 1.24 1.27 1.23 1.07 0.94 0.87 0.82 0.79 0.72 0.68 0.67 0.76 0.86 0.98 1.11 1.21 1.37 1.58 1.65 1.76 1.83 1.88 1.84 1.77 1.79 1.81 1.89 1.94 1.93 1.88 1.72 1.65 1.50

GEFSCGP_prec_meanprecacc_234.txt.gz
Total_Precipitation_Accumulation
0.00 0.01 0.01 0.02 0.03 0.07 0.09 0.11 0.21 0.27 0.18 0.21 0.36 0.56 0.76 0.92 1.07 1.14 1.30 1.29 1.50 1.75 1.90 2.27 2.63 3.11 3.55 4.05 4.77 5.39 5.82 5.79 5.61 5.26 4.90 4.64 4.12 3.79 3.52 3.24 3.01 2.80 2.56 2.48
0.01 0.02 0.02 0.03 0.03 0.04 0.09 0.14 0.25 0.27 0.18 0.19 0.36 0.61 0.88 0.96 0.92 0.95 1.17 1.28 1.37 1.57 1.86 2.20 2.71 3.01 3.37 3.87 4.43 4.84 4.84 4.51 4.38 4.39 4.30 4.06 4.05 3.86 3.72 3.44 3.22 2.83 2.67 2.56
0.03 0.04 0.02 0.03 0.05 0.05 0.08 0.13 0.20 0.24 0.25 0.28 0.39 0.76 1.05 1.07 0.93 0.86 0.90 1.02 1.15 1.30 1.50 1.83 2.38 2.69 2.88 3.35 3.69 3.72 3.61 3.43 3.48 3.54 3.53 3.61 3.82 3.80 3.73 3.57 3.29 3.00 2.85 2.74
0.02 0.03 0.03 0.04 0.07 0.06 0.10 0.09 0.11 0.14 0.23 0.46 0.52 0.95 1.26 1.35 1.26 1.02 0.90 1.01 1.09 1.21 1.26 1.56 1.87 2.10 2.36 2.60 2.72 2.71 2.80 2.82 2.84 2.89 2.92 2.83 2.86 3.02 3.21 3.41 3.46 3.39 3.14 2.88
0.03 0.04 0.05 0.05 0.06 0.07 0.07 0.07 0.09 0.14 0.21 0.35 0.46 0.74 1.20 1.48 1.61 1.27 1.02 0.92 0.88 1.04 1.29 1.48 1.58 1.74 1.83 1.86 1.97 2.04 2.33 2.64 2.75 2.82 2.91 2.83 2.55 2.52 2.56 2.69 2.83 2.84 2.82 2.65
0.04 0.05 0.05 0.05 0.05 0.07 0.08 0.12 0.20 0.30 0.44 0.68 0.63 0.68 1.09 1.35 1.51 1.22 1.00 0.91 0.79 0.81 0.99 1.21 1.46 1.54 1.49 1.46 1.62 1.83 2.13 2.52 2.74 2.81 2.76 2.71 2.60 2.57 2.48 2.49 2.54 2.41 2.38 2.32
0.15 0.13 0.10 0.06 0.07 0.08 0.09 0.17 0.54 0.93 1.25 1.27 0.75 0.72 0.96 1.02 0.96 0.96 0.83 0.78 0.82 0.76 0.76 0.77 0.95 1.19 1.16 1.12 1.29 1.55 1.73 2.04 2.26 2.37 2.35 2.27 2.36 2.47 2.36 2.23 2.16 2.09 1.95 1.86
0.19 0.23 0.14 0.09 0.07 0.07 0.08 0.13 0.39 0.68 0.86 0.98 0.81 1.13 1.27 0.95 0.79 0.70 0.58 0.56 0.65 0.60 0.56 0.55 0.61 0.75 0.96 0.98 1.04 1.15 1.38 1.60 1.79 1.87 1.98 2.08 2.24 2.34 2.29 2.43 2.24 2.09 1.80 1.66
0.08 0.11 0.10 0.09 0.09 0.10 0.10 0.09 0.14 0.25 0.39 0.67 0.94 1.16 1.15 0.97 0.91 0.72 0.54 0.47 0.49 0.47 0.46 0.46 0.54 0.71 0.73 0.73 0.79 0.90 1.13 1.32 1.47 1.60 1.76 1.83 1.81 1.82 1.95 2.14 2.16 2.01 1.92 1.73
0.05 0.05 0.07 0.09 0.10 0.11 0.10 0.09 0.12 0.19 0.34 0.53 0.85 1.22 1.30 1.21 1.06 0.89 0.78 0.57 0.45 0.44 0.46 0.44 0.46 0.53 0.54 0.53 0.67 0.91 1.10 1.13 1.33 1.62 1.78 1.68 1.67 1.58 1.72 1.81 1.85 1.91 1.86 1.84
0.04 0.04 0.07 0.09 0.12 0.15 0.15 0.12 0.12 0.16 0.20 0.35 0.73 0.96 0.90 0.96 0.90 0.87 0.76 0.63 0.54 0.47 0.47 0.47 0.46 0.46 0.57 0.51 0.61 0.78 0.91 1.04 1.33 1.62 1.81 1.80 1.64 1.63 1.75 1.70 1.67 1.80 1.84 1.82
0.05 0.05 0.07 0.12 0.17 0.17 0.16 0.15 0.15 0.22 0.22 0.25 0.40 0.64 0.53 0.63 0.75 0.78 0.62 0.54 0.49 0.38 0.39 0.37 0.34 0.40 0.40 0.40 0.52 0.82 1.13 1.47 1.63 1.87 2.11 2.11 1.81 1.64 1.59 1.49 1.50 1.67 1.86 1.89
0.05 0.06 0.13 0.31 0.34 0.24 0.18 0.14 0.15 0.17 0.17 0.19 0.39 0.61 0.49 0.54 0.65 0.66 0.59 0.51 0.48 0.47 0.41 0.41 0.37 0.45 0.42 0.41 0.44 0.58 0.72 1.05 1.36 1.67 1.93 1.88 1.64 1.49 1.47 1.48 1.53 1.66 1.80 1.81
0.06 0.05 0.10 0.26 0.33 0.32 0.26 0.20 0.17 0.14 0.16 0.20 0.28 0.52 0.54 0.60 0.54 0.55 0.49 0.46 0.54 0.62 0.53 0.48 0.45 0.43 0.42 0.43 0.42 0.51 0.59 0.68 0.88 1.25 1.51 1.52 1.39 1.34 1.37 1.43 1.45 1.45 1.49 1.55
0.07 0.06 0.05 0.06 0.15 0.21 0.23 0.21 0.18 0.14 0.13 0.25 0.28 0.37 0.47 0.63 0.60 0.59 0.55 0.48 0.48 0.56 0.54 0.51 0.49 0.53 0.54 0.59 0.59 0.58 0.60 0.63 0.79 1.16 1.36 1.33 1.29 1.29 1.26 1.27 1.36 1.42 1.48 1.53
0.10 0.10 0.09 0.10 0.14 0.15 0.16 0.19 0.18 0.13 0.11 0.10 0.16 0.30 0.35 0.56 0.69 0.67 0.65 0.62 0.59 0.58 0.54 0.51 0.44 0.52 0.60 0.65 0.66 0.64 0.65 0.68 0.80 1.05 1.26 1.25 1.22 1.21 1.15 1.20 1.30 1.45 1.56 1.72
0.16 0.15 0.15 0.15 0.19 0.17 0.24 0.20 0.17 0.15 0.14 0.15 0.23 0.36 0.36 0.41 0.57 0.68 0.66 0.61 0.56 0.59 0.52 0.51 0.53 0.63 0.82 0.74 0.73 0.78 0.71 0.71 0.83 1.03 1.20 1.28 1.25 1.27 1.25 1.22 1.39 1.58 1.75 1.91
0.29 0.27 0.25 0.21 0.25 0.36 0.28 0.21 0.22 0.25 0.28 0.28 0.32 0.36 0.39 0.50 0.57 0.70 0.86 0.71 0.56 0.59 0.61 0.67 0.65 0.72 0.80 0.77 0.80 0.83 0.82 0.80 0.90 1.08 1.29 1.37 1.31 1.37 1.45 1.45 1.54 1.76 1.98 2.12
0.34 0.39 0.36 0.31 0.34 0.41 0.37 0.30 0.34 0.38 0.43 0.45 0.48 0.42 0.47 0.53 0.63 0.76 0.72 0.71 0.74 0.72 0.72 0.78 0.86 0.88 0.94 0.95 0.90 0.89 0.97 0.99 1.06 1.15 1.31 1.41 1.45 1.53 1.56 1.60 1.78 2.00 2.19 2.24
0.36 0.45 0.49 0.44 0.52 0.59 0.58 0.43 0.37 0.44 0.76 0.61 0.63 0.62 0.55 0.57 0.82 0.93 0.78 0.70 0.70 0.80 0.88 0.85 0.91 0.96 0.98 1.01 1.05 1.05 1.12 1.27 1.40 1.48 1.54 1.71 1.87 2.03 2.10 2.15 2.23 2.28 2.37 2.33
0.64 0.61 0.60 0.65 0.76 0.70 0.56 0.50 0.43 0.82 1.16 0.86 0.83 0.81 0.72 0.82 0.93 0.92 0.79 0.72 0.67 0.71 0.84 0.90 0.89 0.98 1.06 1.07 1.17 1.32 1.41 1.52 1.65 1.78 1.85 2.03 2.33 2.49 2.48 2.49 2.44 2.37 2.38 2.40
0.87 0.82 0.83 0.88 1.11 1.17 0.65 0.60 0.92 1.16 1.00 1.02 1.03 1.00 0.93 0.90 0.96 0.96 0.92 0.75 0.68 0.69 0.76 0.86 0.91 0.96 1.12 1.35 1.53 1.77 1.86 1.83 1.93 2.08 2.22 2.39 2.61 2.55 2.47 2.64 2.57 2.54 2.60 2.57
0.92 0.98 1.06 1.14 1.34 1.14 0.80 0.92 1.10 1.09 1.05 1.08 1.05 0.99 0.89 0.84 0.99 0.94 0.85 0.81 0.68 0.66 0.73 0.82 0.90 1.01 1.17 1.44 1.80 2.05 2.10 2.21 2.24 2.32 2.44 2.50 2.55 2.69 2.83 2.88 2.77 2.69 2.66 2.58
1.08 0.99 1.16 1.37 1.45 1.23 1.07 1.06 1.02 1.06 1.07 1.03 0.94 0.89 0.88 0.83 0.84 0.84 0.77 0.75 0.71 0.70 0.78 0.82 0.91 1.08 1.33 1.55 1.86 2.02 2.08 2.12 2.15 2.18 2.17 2.23 2.35 2.46 2.55 2.79 2.85 2.75 2.61 2.53
1.26 1.17 1.38 1.74 1.82 1.68 1.55 1.32 1.15 1.13 1.09 1.12 1.07 0.97 0.93 0.86 0.80 0.75 0.74 0.73 0.72 0.72 0.81 0.89 0.98 1.10 1.24 1.44 1.65 1.75 1.90 1.98 2.11 2.13 2.07 2.03 2.05 2.16 2.24 2.33 2.43 2.40 2.37 2.19
1.34 1.41 1.66 2.01 1.75 1.69 1.82 1.57 1.36 1.30 1.27 1.31 1.33 1.28 1.12 0.99 0.91 0.85 0.82 0.75 0.71 0.70 0.79 0.89 1.00 1.13 1.23 1.40 1.61 1.70 1.84 1.91 1.97 1.97 1.90 1.91 1.91 1.99 2.03 2.01 1.93 1.77 1.69 1.54

GEFSCGP_prec_meanprecacc_240.txt.gz
Total_Precipitation_Accumulation
0.00 0.01 0.01 0.02 0.03 0.07 0.09 0.12 0.21 0.27 0.18 0.21 0.37 0.57 0.77 0.92 1.07 1.14 1.30 1.30 1.50 1.76 1.92 2.30 2.66 3.13 3.58 4.07 4.79 5.40 5.82 5.81 5.63 5.30 4.94 4.66 4.15 3.82 3.54 3.26 3.04 2.83 2.58 2.50
0.01 0.02 0.02 0.03 0.03 0.05 0.09 0.14 0.26 0.28 0.19 0.20 0.37 0.62 0.90 0.97 0.93 0.96 1.17 1.29 1.37 1.58 1.87 2.22 2.73 3.03 3.39 3.89 4.44 4.85 4.84 4.52 4.40 4.42 4.34 4.09 4.07 3.88 3.73 3.46 3.24 2.86 2.69 2.59
0.03 0.04 0.02 0.03 0.05 0.05 0.08 0.13 0.20 0.24 0.26 0.29 0.40 0.77 1.06 1.08 0.94 0.87 0.90 1.02 1.15 1.30 1.51 1.85 2.40 2.71 2.91 3.39 3.70 3.73 3.62 3.45 3.50 3.57 3.56 3.64 3.83 3.81 3.74 3.58 3.31 3.01 2.87 2.76
0.02 0.03 0.03 0.04 0.07 0.06 0.11 0.09 0.11 0.15 0.25 0.48 0.53 0.96 1.26 1.36 1.26 1.02 0.91 1.02 1.09 1.21 1.27 1.57 1.90 2.13 2.40 2.64 2.74 2.73 2.80 2.83 2.86 2.93 2.96 2.85 2.86 3.03 3.23 3.43 3.48 3.41 3.15 2.91
0.03 0.04 0.05 0.05 0.06 0.08 0.08 0.07 0.09 0.14 0.22 0.37 0.47 0.74 1.21 1.48 1.61 1.27 1.02 0.93 0.88 1.04 1.29 1.49 1.60 1.76 1.86 1.88 1.98 2.05 2.33 2.66 2.78 2.87 2.96 2.85 2.56 2.53 2.57 2.70 2.85 2.85 2.82 2.66
0.04 0.05 0.05 0.05 0.05 0.07 0.08 0.12 0.20 0.31 0.45 0.69 0.63 0.69 1.09 1.35 1.51 1.22 1.00 0.91 0.79 0.81 1.00 1.22 1.48 1.56 1.51 1.48 1.63 1.84 2.14 2.56 2.79 2.85 2.78 2.73 2.61 2.58 2.50 2.50 2.54 2.42 2.39 2.32
0.15 0.13 0.10 0.06 0.07 0.08 0.10 0.18 0.55 0.93 1.26 1.27 0.75 0.72 0.96 1.02 0.96 0.97 0.83 0.78 0.82 0.76 0.76 0.78 0.96 1.21 1.18 1.13 1.29 1.56 1.75 2.09 2.32 2.40 2.37 2.28 2.38 2.48 2.36 2.24 2.16 2.09 1.96 1.88
0.19 0.23 0.14 0.09 0.07 0.07 0.09 0.13 0.40 0.69 0.87 0.99 0.82 1.13 1.27 0.95 0.79 0.70 0.58 0.57 0.66 0.62 0.57 0.55 0.62 0.78 1.00 1.00 1.05 1.17 1.42 1.67 1.87 1.91 2.00 2.10 2.25 2.35 2.30 2.44 2.24 2.09 1.81 1.67
0.08 0.11 0.10 0.09 0.09 0.10 0.10 0.09 0.15 0.25 0.40 0.67 0.94 1.17 1.15 0.97 0.91 0.73 0.54 0.47 0.49 0.48 0.47 0.47 0.55 0.73 0.76 0.74 0.80 0.92 1.15 1.35 1.50 1.62 1.77 1.84 1.82 1.83 1.96 2.14 2.16 2.01 1.92 1.73
0.05 0.05 0.07 0.09 0.10 0.11 0.11 0.10 0.12 0.19 0.34 0.53 0.85 1.22 1.30 1.21 1.06 0.89 0.78 0.57 0.46 0.45 0.47 0.45 0.47 0.55 0.55 0.54 0.68 0.93 1.11 1.14 1.35 1.64 1.80 1.71 1.71 1.61 1.73 1.81 1.85 1.91 1.86 1.85
0.04 0.04 0.07 0.09 0.12 0.15 0.15 0.13 0.12 0.16 0.20 0.35 0.73 0.97 0.90 0.96 0.91 0.87 0.76 0.64 0.55 0.48 0.48 0.48 0.46 0.47 0.58 0.52 0.61 0.79 0.92 1.05 1.34 1.64 1.84 1.84 1.71 1.68 1.77 1.71 1.67 1.80 1.84 1.82
0.05 0.05 0.07 0.12 0.17 0.17 0.16 0.16 0.16 0.22 0.22 0.25 0.40 0.65 0.53 0.64 0.75 0.78 0.63 0.55 0.49 0.39 0.40 0.38 0.35 0.41 0.41 0.41 0.53 0.82 1.13 1.48 1.64 1.89 2.15 2.16 1.87 1.67 1.61 1.50 1.51 1.68 1.86 1.89
0.05 0.06 0.13 0.31 0.34 0.24 0.18 0.14 0.15 0.17 0.17 0.20 0.40 0.61 0.49 0.55 0.65 0.66 0.59 0.52 0.50 0.49 0.43 0.42 0.38 0.46 0.44 0.42 0.45 0.58 0.73 1.06 1.38 1.71 1.99 1.97 1.72 1.52 1.49 1.50 1.54 1.67 1.80 1.81
0.06 0.05 0.10 0.26 0.33 0.32 0.26 0.20 0.17 0.14 0.17 0.21 0.28 0.52 0.54 0.60 0.55 0.56 0.50 0.47 0.54 0.63 0.54 0.50 0.47 0.45 0.44 0.44 0.43 0.52 0.60 0.70 0.90 1.29 1.55 1.57 1.42 1.36 1.38 1.45 1.47 1.46 1.50 1.56
0.07 0.06 0.05 0.06 0.15 0.21 0.23 0.21 0.18 0.14 0.13 0.25 0.28 0.37 0.47 0.63 0.60 0.59 0.56 0.48 0.48 0.56 0.55 0.52 0.51 0.55 0.56 0.61 0.60 0.60 0.61 0.65 0.81 1.19 1.39 1.36 1.31 1.31 1.28 1.29 1.37 1.43 1.50 1.55
0.10 0.10 0.09 0.10 0.14 0.15 0.16 0.19 0.18 0.13 0.11 0.10 0.16 0.30 0.35 0.56 0.69 0.67 0.65 0.62 0.59 0.59 0.54 0.52 0.46 0.55 0.62 0.67 0.68 0.66 0.67 0.71 0.83 1.08 1.29 1.28 1.25 1.23 1.17 1.22 1.31 1.47 1.58 1.74
0.16 0.15 0.15 0.15 0.19 0.17 0.24 0.20 0.17 0.15 0.14 0.15 0.23 0.37 0.36 0.41 0.57 0.68 0.67 0.61 0.56 0.60 0.53 0.53 0.56 0.65 0.84 0.76 0.76 0.81 0.75 0.76 0.88 1.09 1.25 1.31 1.28 1.30 1.28 1.25 1.41 1.61 1.78 1.93
0.29 0.27 0.25 0.21 0.25 0.36 0.28 0.21 0.22 0.25 0.28 0.29 0.32 0.36 0.39 0.50 0.57 0.70 0.86 0.71 0.56 0.60 0.62 0.69 0.67 0.74 0.82 0.80 0.83 0.86 0.86 0.86 0.96 1.14 1.34 1.41 1.36 1.40 1.49 1.49 1.58 1.81 2.03 2.17
0.34 0.39 0.36 0.31 0.34 0.41 0.38 0.30 0.34 0.38 0.43 0.45 0.49 0.43 0.47 0.53 0.63 0.76 0.73 0.71 0.74 0.73 0.72 0.78 0.86 0.89 0.96 0.97 0.92 0.93 1.03 1.05 1.13 1.21 1.38 1.50 1.53 1.60 1.62 1.66 1.84 2.07 2.25 2.29
0.37 0.45 0.49 0.44 0.52 0.59 0.58 0.43 0.37 0.45 0.77 0.61 0.63 0.62 0.55 0.57 0.83 0.94 0.78 0.70 0.70 0.80 0.88 0.86 0.93 0.97 1.00 1.04 1.09 1.12 1.20 1.32 1.44 1.53 1.63 1.82 1.99 2.15 2.21 2.24 2.29 2.34 2.43 2.39
0.65 0.62 0.61 0.65 0.76 0.70 0.56 0.50 0.44 0.83 1.17 0.87 0.84 0.82 0.72 0.83 0.93 0.93 0.79 0.72 0.67 0.71 0.85 0.91 0.91 1.00 1.09 1.10 1.22 1.39 1.47 1.58 1.71 1.86 1.94 2.14 2.42 2.59 2.59 2.59 2.52 2.43 2.44 2.47
0.87 0.83 0.83 0.88 1.11 1.17 0.65 0.61 0.93 1.17 1.01 1.03 1.04 1.00 0.93 0.91 0.96 0.97 0.92 0.76 0.69 0.70 0.77 0.88 0.93 0.98 1.16 1.39 1.58 1.82 1.93 1.91 2.01 2.15 2.29 2.47 2.68 2.62 2.56 2.73 2.65 2.61 2.67 2.65
0.92 0.98 1.06 1.14 1.34 1.14 0.80 0.92 1.10 1.09 1.06 1.09 1.07 1.01 0.91 0.86 1.00 0.95 0.86 0.83 0.70 0.68 0.74 0.84 0.92 1.04 1.21 1.48 1.85 2.11 2.16 2.26 2.30 2.37 2.51 2.58 2.63 2.78 2.92 2.98 2.88 2.78 2.73 2.63
1.09 0.99 1.16 1.38 1.46 1.23 1.07 1.06 1.03 1.06 1.08 1.04 0.96 0.91 0.91 0.86 0.88 0.87 0.80 0.77 0.72 0.72 0.79 0.83 0.92 1.09 1.35 1.58 1.89 2.05 2.11 2.15 2.18 2.23 2.23 2.31 2.45 2.58 2.68 2.91 2.96 2.85 2.69 2.59
1.28 1.18 1.38 1.74 1.82 1.69 1.55 1.32 1.16 1.14 1.10 1.13 1.08 1.00 0.96 0.92 0.86 0.79 0.76 0.75 0.74 0.73 0.82 0.90 0.99 1.11 1.24 1.45 1.65 1.76 1.92 2.00 2.16 2.21 2.14 2.10 2.13 2.27 2.38 2.48 2.54 2.50 2.47 2.28
1.37 1.43 1.67 2.02 1.76 1.70 1.83 1.58 1.37 1.31 1.28 1.32 1.34 1.30 1.17 1.07 0.98 0.89 0.84 0.76 0.72 0.71 0.81 0.91 1.01 1.14 1.24 1.41 1.61 1.71 1.84 1.92 2.00 2.03 1.96 1.96 1.95 2.04 2.09 2.10 2.03 1.85 1.77 1.61

GEFSCGP_prec_meanprecacc_246.txt.gz
Total_Precipitation_Accumulation
0.00 0.01 0.01 0.02 0.03 0.07 0.09 0.12 0.21 0.27 0.18 0.21 0.37 0.57 0.78 0.92 1.07 1.14 1.31 1.30 1.50 1.76 1.92 2.30 2.66 3.13 3.58 4.07 4.79 5.41 5.83 5.83 5.67 5.35 4.98 4.72 4.22 3.86 3.59 3.30 3.09 2.88 2.61 2.53
0.01 0.02 0.02 0.03 0.03 0.05 0.09 0.14 0.26 0.28 0.19 0.20 0.37 0.62 0.90 0.97 0.93 0.96 1.18 1.29 1.37 1.58 1.87 2.23 2.73 3.03 3.39 3.89 4.44 4.85 4.85 4.53 4.42 4.46 4.37 4.13 4.11 3.91 3.78 3.50 3.29 2.90 2.73 2.63
0.03 0.04 0.02 0.03 0.05 0.05 0.08 0.13 0.20 0.24 0.26 0.29 0.40 0.77 1.06 1.08 0.94 0.87 0.91 1.02 1.15 1.30 1.51 1.85 2.40 2.71 2.91 3.39 3.70 3.73 3.62 3.45 3.51 3.59 3.59 3.67 3.85 3.84 3.78 3.62 3.35 3.05 2.91 2.81
0.02 0.03 0.03 0.04 0.07 0.06 0.11 0.09 0.11 0.15 0.25 0.48 0.53 0.96 1.26 1.36 1.26 1.03 0.91 1.02 1.09 1.21 1.27 1.57 1.90 2.13 2.40 2.64 2.74 2.73 2.81 2.83 2.87 2.95 3.00 2.89 2.89 3.06 3.27 3.48 3.53 3.44 3.19 2.95
0.03 0.04 0.05 0.05 0.06 0.08 0.08 0.07 0.09 0.14 0.22 0.38 0.48 0.75 1.21 1.48 1.61 1.28 1.02 0.93 0.88 1.04 1.29 1.50 1.60 1.77 1.86 1.88 1.98 2.05 2.34 2.66 2.79 2.88 2.99 2.89 2.59 2.56 2.60 2.73 2.89 2.89 2.85 2.69
0.04 0.05 0.05 0.05 0.05 0.07 0.08 0.12 0.20 0.31 0.45 0.69 0.64 0.69 1.09 1.35 1.51 1.22 1.00 0.91 0.79 0.81 1.00 1.23 1.49 1.57 1.52 1.48 1.63 1.84 2.14 2.56 2.80 2.87 2.81 2.76 2.65 2.61 2.53 2.53 2.57 2.44 2.41 2.34
0.15 0.13 0.10 0.06 0.07 0.08 0.10 0.18 0.55 0.94 1.27 1.28 0.76 0.72 0.96 1.02 0.96 0.97 0.84 0.78 0.82 0.76 0.76 0.78 0.96 1.22 1.18 1.13 1.29 1.56 1.76 2.09 2.33 2.43 2.40 2.31 2.42 2.51 2.39 2.25 2.18 2.10 1.98 1.90
0.19 0.23 0.14 0.09 0.07 0.07 0.09 0.13 0.40 0.69 0.88 0.99 0.82 1.13 1.27 0.95 0.79 0.70 0.58 0.57 0.66 0.62 0.57 0.55 0.63 0.79 1.01 1.00 1.05 1.17 1.42 1.67 1.88 1.93 2.03 2.13 2.28 2.37 2.32 2.46 2.26 2.10 1.82 1.68
0.08 0.11 0.10 0.09 0.09 0.10 0.10 0.09 0.15 0.26 0.40 0.67 0.94 1.17 1.15 0.97 0.91 0.73 0.54 0.47 0.49 0.48 0.47 0.47 0.55 0.75 0.78 0.75 0.81 0.92 1.16 1.35 1.51 1.63 1.78 1.86 1.84 1.87 2.01 2.19 2.19 2.03 1.94 1.75
0.05 0.05 0.07 0.09 0.10 0.11 0.11 0.10 0.12 0.20 0.35 0.53 0.85 1.22 1.30 1.21 1.06 0.89 0.78 0.57 0.46 0.45 0.47 0.45 0.47 0.56 0.57 0.56 0.70 0.93 1.11 1.15 1.36 1.65 1.81 1.73 1.75 1.71 1.86 1.88 1.90 1.94 1.87 1.86
0.04 0.04 0.07 0.09 0.12 0.15 0.15 0.13 0.12 0.16 0.20 0.35 0.73 0.97 0.91 0.96 0.91 0.87 0.76 0.64 0.55 0.48 0.48 0.48 0.46 0.47 0.58 0.52 0.62 0.79 0.92 1.06 1.34 1.64 1.86 1.88 1.76 1.76 1.84 1.75 1.71 1.83 1.86 1.85
0.05 0.05 0.07 0.12 0.17 0.17 0.16 0.16 0.16 0.22 0.22 0.25 0.40 0.65 0.53 0.64 0.76 0.79 0.63 0.55 0.50 0.39 0.40 0.38 0.35 0.41 0.42 0.42 0.54 0.82 1.14 1.48 1.64 1.90 2.17 2.21 1.96 1.74 1.65 1.53 1.53 1.70 1.89 1.90
0.05 0.06 0.13 0.31 0.34 0.24 0.18 0.14 0.15 0.17 0.17 0.20 0.40 0.61 0.49 0.55 0.65 0.66 0.59 0.52 0.50 0.49 0.43 0.42 0.38 0.47 0.44 0.43 0.45 0.58 0.73 1.07 1.38 1.72 2.01 2.01 1.76 1.55 1.51 1.51 1.56 1.69 1.83 1.83
0.06 0.05 0.10 0.26 0.33 0.32 0.26 0.20 0.17 0.14 0.17 0.21 0.28 0.52 0.54 0.60 0.55 0.56 0.50 0.47 0.54 0.63 0.54 0.50 0.47 0.46 0.45 0.45 0.43 0.53 0.61 0.70 0.91 1.31 1.59 1.59 1.44 1.39 1.40 1.46 1.49 1.49 1.53 1.59
0.07 0.06 0.05 0.06 0.15 0.21 0.23 0.21 0.18 0.14 0.13 0.25 0.28 0.37 0.47 0.63 0.60 0.59 0.56 0.49 0.49 0.57 0.56 0.53 0.52 0.56 0.56 0.61 0.61 0.60 0.62 0.66 0.84 1.23 1.42 1.38 1.34 1.35 1.31 1.31 1.40 1.47 1.52 1.57
0.10 0.10 0.09 0.10 0.14 0.15 0.16 0.19 0.18 0.13 0.11 0.10 0.16 0.30 0.35 0.56 0.69 0.67 0.65 0.62 0.60 0.59 0.55 0.52 0.46 0.55 0.62 0.67 0.69 0.68 0.70 0.73 0.86 1.13 1.35 1.34 1.31 1.28 1.21 1.26 1.34 1.49 1.60 1.76
0.16 0.15 0.15 0.15 0.19 0.17 0.24 0.20 0.17 0.15 0.14 0.15 0.23 0.37 0.36 0.41 0.57 0.68 0.67 0.61 0.57 0.60 0.53 0.53 0.56 0.66 0.84 0.76 0.77 0.83 0.78 0.79 0.92 1.15 1.32 1.38 1.33 1.33 1.30 1.27 1.42 1.62 1.79 1.95
0.29 0.27 0.25 0.21 0.25 0.36 0.28 0.21 0.22 0.25 0.28 0.29 0.32 0.36 0.39 0.50 0.57 0.70 0.86 0.72 0.56 0.60 0.62 0.70 0.67 0.74 0.82 0.80 0.83 0.87 0.88 0.90 1.01 1.19 1.38 1.44 1.38 1.43 1.51 1.50 1.59 1.83 2.05 2.19
0.34 0.39 0.36 0.31 0.34 0.41 0.38 0.30 0.34 0.38 0.43 0.45 0.49 0.43 0.47 0.53 0.63 0.77 0.73 0.71 0.74 0.73 0.72 0.79 0.86 0.89 0.96 0.97 0.92 0.94 1.06 1.08 1.16 1.24 1.41 1.51 1.55 1.62 1.64 1.68 1.86 2.09 2.27 2.31
0.37 0.45 0.49 0.44 0.52 0.59 0.58 0.43 0.37 0.45 0.77 0.61 0.63 0.62 0.55 0.57 0.83 0.94 0.78 0.71 0.71 0.81 0.89 0.87 0.93 0.97 1.01 1.04 1.09 1.12 1.22 1.34 1.46 1.55 1.64 1.83 2.02 2.19 2.24 2.26 2.31 2.35 2.45 2.41
0.65 0.62 0.61 0.65 0.76 0.71 0.56 0.50 0.44 0.84 1.17 0.87 0.84 0.82 0.72 0.83 0.94 0.93 0.80 0.73 0.68 0.71 0.85 0.92 0.91 1.00 1.09 1.11 1.22 1.40 1.48 1.59 1.73 1.88 1.96 2.15 2.45 2.62 2.62 2.61 2.53 2.45 2.47 2.50
0.87 0.83 0.83 0.89 1.11 1.17 0.65 0.61 0.93 1.18 1.01 1.03 1.04 1.01 0.94 0.91 0.97 0.97 0.93 0.77 0.70 0.70 0.78 0.89 0.93 0.98 1.16 1.39 1.58 1.83 1.94 1.92 2.03 2.17 2.31 2.49 2.70 2.64 2.58 2.76 2.68 2.64 2.70 2.67
0.92 0.98 1.06 1.14 1.34 1.15 0.80 0.93 1.10 1.09 1.06 1.10 1.07 1.01 0.91 0.86 1.01 0.96 0.87 0.84 0.70 0.68 0.75 0.84 0.92 1.04 1.21 1.48 1.86 2.11 2.17 2.27 2.31 2.39 2.53 2.61 2.67 2.81 2.95 3.02 2.92 2.81 2.76 2.67
1.09 0.99 1.17 1.38 1.46 1.23 1.07 1.06 1.03 1.06 1.08 1.04 0.97 0.92 0.92 0.87 0.88 0.88 0.81 0.78 0.73 0.72 0.80 0.84 0.93 1.10 1.35 1.58 1.89 2.06 2.12 2.16 2.20 2.24 2.25 2.34 2.48 2.61 2.71 2.95 3.01 2.91 2.76 2.65
1.28 1.18 1.39 1.75 1.83 1.69 1.56 1.33 1.16 1.14 1.10 1.13 1.09 1.00 0.97 0.93 0.87 0.80 0.77 0.75 0.74 0.74 0.83 0.90 0.99 1.11 1.25 1.45 1.66 1.77 1.92 2.01 2.16 2.21 2.15 2.11 2.14 2.28 2.40 2.52 2.61 2.57 2.54 2.36
1.37 1.43 1.68 2.03 1.76 1.70 1.83 1.59 1.38 1.32 1.29 1.32 1.34 1.31 1.17 1.07 0.99 0.90 0.85 0.76 0.73 0.72 0.82 0.91 1.02 1.15 1.25 1.41 1.62 1.71 1.85 1.93 2.01 2.04 1.97 1.97 1.96 2.04 2.10 2.11 2.05 1.88 1.79 1.64

GEFSCGP_prec_meanprecacc_252.txt.gz
Total_Precipitation_Accumulation
0.00 0.01 0.02 0.02 0.03 0.07 0.10 0.14 0.22 0.28 0.18 0.21 0.37 0.58 0.78 0.92 1.07 1.14 1.31 1.30 1.51 1.78 1.94 2.32 2.67 3.14 3.58 4.08 4.80 5.43 5.86 5.87 5.72 5.40 5.05 4.79 4.28 3.92 3.64 3.34 3.13 2.91 2.65 2.58
0.01 0.02 0.02 0.03 0.03 0.05 0.09 0.16 0.28 0.29 0.19 0.20 0.37 0.63 0.90 0.98 0.93 0.96 1.18 1.29 1.37 1.58 1.89 2.25 2.76 3.04 3.40 3.91 4.46 4.87 4.88 4.56 4.46 4.50 4.42 4.18 4.15 3.94 3.82 3.54 3.35 2.94 2.78 2.69
0.03 0.04 0.02 0.03 0.05 0.05 0.09 0.14 0.21 0.25 0.26 0.29 0.41 0.80 1.07 1.09 0.94 0.87 0.91 1.02 1.15 1.30 1.51 1.86 2.42 2.73 2.93 3.40 3.72 3.74 3.64 3.48 3.54 3.63 3.62 3.71 3.90 3.89 3.83 3.68 3.40 3.09 2.94 2.86
0.02 0.03 0.03 0.04 0.07 0.06 0.11 0.09 0.12 0.15 0.25 0.48 0.55 1.01 1.32 1.40 1.27 1.03 0.92 1.03 1.10 1.21 1.27 1.57 1.90 2.13 2.40 2.65 2.75 2.74 2.82 2.85 2.89 2.97 3.03 2.94 2.94 3.13 3.33 3.53 3.56 3.47 3.21 2.98
0.03 0.04 0.05 0.05 0.06 0.08 0.08 0.07 0.10 0.14 0.22 0.38 0.50 0.78 1.28 1.57 1.64 1.28 1.02 0.93 0.89 1.04 1.29 1.50 1.60 1.77 1.87 1.89 1.98 2.05 2.34 2.68 2.81 2.91 3.03 2.94 2.63 2.60 2.64 2.77 2.93 2.92 2.89 2.72
0.04 0.05 0.06 0.05 0.05 0.07 0.08 0.12 0.20 0.31 0.46 0.70 0.65 0.72 1.15 1.42 1.54 1.22 1.01 0.91 0.79 0.81 1.00 1.23 1.49 1.58 1.53 1.49 1.64 1.84 2.15 2.58 2.83 2.89 2.84 2.80 2.70 2.66 2.57 2.56 2.60 2.47 2.44 2.36
0.15 0.13 0.10 0.06 0.07 0.08 0.10 0.18 0.55 0.95 1.28 1.29 0.77 0.73 0.97 1.02 0.97 0.97 0.84 0.78 0.82 0.76 0.76 0.78 0.97 1.22 1.19 1.15 1.30 1.57 1.77 2.11 2.36 2.46 2.43 2.35 2.46 2.56 2.43 2.28 2.21 2.13 2.02 1.93
0.19 0.23 0.14 0.09 0.08 0.08 0.09 0.13 0.41 0.70 0.90 1.01 0.83 1.14 1.27 0.96 0.80 0.70 0.59 0.57 0.66 0.62 0.57 0.56 0.63 0.80 1.02 1.01 1.06 1.18 1.43 1.69 1.90 1.97 2.06 2.17 2.32 2.40 2.35 2.50 2.29 2.12 1.83 1.69
0.08 0.11 0.10 0.09 0.09 0.10 0.10 0.09 0.15 0.26 0.41 0.70 0.96 1.17 1.15 0.97 0.91 0.73 0.54 0.47 0.49 0.49 0.48 0.49 0.56 0.76 0.79 0.77 0.81 0.92 1.17 1.36 1.52 1.66 1.82 1.89 1.86 1.89 2.04 2.22 2.21 2.04 1.96 1.77
0.05 0.05 0.07 0.09 0.10 0.12 0.11 0.10 0.12 0.20 0.36 0.56 0.87 1.23 1.31 1.22 1.06 0.89 0.78 0.57 0.46 0.46 0.49 0.48 0.49 0.57 0.58 0.58 0.70 0.94 1.11 1.15 1.37 1.66 1.84 1.75 1.77 1.73 1.88 1.92 1.93 1.97 1.91 1.89
0.04 0.04 0.07 0.09 0.13 0.15 0.15 0.13 0.12 0.16 0.21 0.36 0.75 1.00 0.94 0.97 0.91 0.88 0.77 0.64 0.55 0.49 0.48 0.49 0.49 0.49 0.58 0.52 0.62 0.79 0.93 1.07 1.36 1.66 1.89 1.91 1.80 1.81 1.87 1.78 1.74 1.86 1.89 1.87
0.05 0.05 0.07 0.12 0.18 0.17 0.16 0.16 0.16 0.23 0.22 0.25 0.41 0.67 0.55 0.65 0.76 0.79 0.63 0.55 0.50 0.39 0.40 0.39 0.37 0.42 0.42 0.42 0.54 0.84 1.15 1.49 1.66 1.92 2.20 2.24 2.01 1.81 1.70 1.57 1.56 1.73 1.90 1.92
0.05 0.06 0.14 0.31 0.34 0.25 0.18 0.14 0.15 0.17 0.18 0.21 0.41 0.63 0.50 0.57 0.67 0.67 0.62 0.54 0.50 0.49 0.43 0.42 0.39 0.47 0.45 0.43 0.46 0.60 0.75 1.09 1.41 1.74 2.05 2.06 1.82 1.60 1.55 1.54 1.58 1.71 1.84 1.85
0.06 0.05 0.10 0.26 0.33 0.32 0.27 0.21 0.17 0.14 0.17 0.21 0.29 0.53 0.55 0.61 0.55 0.57 0.50 0.47 0.55 0.63 0.56 0.52 0.49 0.47 0.47 0.46 0.45 0.54 0.62 0.71 0.92 1.33 1.61 1.64 1.49 1.42 1.43 1.48 1.51 1.51 1.55 1.60
0.07 0.07 0.05 0.06 0.15 0.22 0.23 0.22 0.19 0.15 0.13 0.25 0.28 0.37 0.48 0.65 0.62 0.60 0.56 0.49 0.49 0.57 0.57 0.54 0.54 0.58 0.59 0.65 0.65 0.64 0.65 0.68 0.86 1.25 1.45 1.43 1.38 1.38 1.33 1.33 1.42 1.48 1.54 1.58
0.10 0.10 0.10 0.10 0.14 0.16 0.16 0.20 0.18 0.13 0.11 0.10 0.16 0.31 0.36 0.58 0.72 0.69 0.66 0.62 0.60 0.59 0.55 0.53 0.47 0.57 0.66 0.71 0.73 0.72 0.75 0.78 0.91 1.18 1.40 1.38 1.35 1.31 1.24 1.28 1.36 1.51 1.62 1.78
0.16 0.15 0.15 0.16 0.19 0.17 0.25 0.21 0.17 0.15 0.14 0.15 0.23 0.37 0.36 0.42 0.59 0.70 0.68 0.62 0.57 0.60 0.53 0.53 0.57 0.66 0.85 0.79 0.80 0.85 0.81 0.85 0.98 1.23 1.41 1.43 1.37 1.36 1.34 1.30 1.44 1.64 1.82 1.98
0.29 0.27 0.25 0.21 0.25 0.36 0.28 0.21 0.22 0.25 0.28 0.29 0.32 0.36 0.39 0.50 0.57 0.70 0.86 0.72 0.57 0.61 0.63 0.70 0.67 0.74 0.82 0.81 0.84 0.89 0.90 0.93 1.05 1.26 1.48 1.53 1.46 1.48 1.55 1.54 1.62 1.86 2.08 2.22
0.34 0.39 0.36 0.31 0.34 0.41 0.38 0.30 0.34 0.38 0.43 0.45 0.49 0.43 0.47 0.53 0.64 0.77 0.73 0.71 0.75 0.74 0.74 0.79 0.87 0.89 0.96 0.97 0.94 0.97 1.09 1.11 1.19 1.27 1.45 1.57 1.62 1.69 1.70 1.73 1.91 2.13 2.30 2.33
0.37 0.45 0.49 0.44 0.52 0.59 0.58 0.43 0.37 0.45 0.77 0.61 0.63 0.62 0.55 0.57 0.83 0.95 0.79 0.71 0.71 0.81 0.90 0.89 0.94 0.98 1.01 1.05 1.11 1.14 1.25 1.38 1.49 1.58 1.68 1.88 2.07 2.24 2.30 2.32 2.37 2.41 2.49 2.45
0.65 0.62 0.61 0.66 0.76 0.71 0.57 0.50 0.45 0.85 1.18 0.87 0.84 0.82 0.72 0.83 0.94 0.93 0.80 0.74 0.69 0.72 0.86 0.93 0.93 1.01 1.10 1.11 1.23 1.42 1.51 1.62 1.77 1.92 2.00 2.21 2.50 2.68 2.67 2.66 2.58 2.50 2.53 2.55
0.87 0.83 0.83 0.89 1.12 1.18 0.66 0.61 0.95 1.19 1.01 1.03 1.04 1.01 0.94 0.91 0.97 0.97 0.94 0.78 0.70 0.71 0.78 0.89 0.94 1.00 1.17 1.41 1.60 1.84 1.95 1.95 2.05 2.21 2.38 2.58 2.78 2.71 2.65 2.82 2.73 2.70 2.76 2.72
0.92 0.98 1.06 1.14 1.35 1.15 0.81 0.93 1.10 1.09 1.06 1.10 1.07 1.02 0.91 0.86 1.01 0.96 0.88 0.85 0.71 0.69 0.76 0.85 0.93 1.05 1.23 1.50 1.88 2.13 2.19 2.31 2.35 2.43 2.58 2.68 2.74 2.88 3.02 3.08 2.98 2.87 2.83 2.74
1.09 0.99 1.17 1.38 1.46 1.23 1.08 1.06 1.03 1.06 1.08 1.04 0.97 0.92 0.92 0.87 0.89 0.88 0.81 0.79 0.74 0.73 0.81 0.86 0.94 1.12 1.37 1.61 1.93 2.08 2.15 2.20 2.24 2.29 2.30 2.39 2.54 2.66 2.76 3.01 3.05 2.95 2.80 2.69
1.29 1.18 1.39 1.77 1.85 1.71 1.58 1.34 1.16 1.14 1.10 1.13 1.09 1.00 0.97 0.93 0.88 0.80 0.78 0.76 0.76 0.75 0.85 0.93 1.02 1.14 1.27 1.48 1.68 1.78 1.95 2.04 2.20 2.25 2.19 2.15 2.18 2.32 2.44 2.56 2.65 2.60 2.57 2.39
1.40 1.45 1.70 2.06 1.80 1.74 1.86 1.59 1.38 1.32 1.29 1.33 1.34 1.31 1.18 1.08 1.02 0.92 0.85 0.77 0.74 0.73 0.83 0.94 1.05 1.18 1.28 1.44 1.64 1.73 1.87 1.95 2.03 2.05 1.99 1.99 1.99 2.07 2.13 2.14 2.07 1.90 1.81 1.66

GEFSCGP_prec_meanprecacc_258.txt.gz
Total_Precipitation_Accumulation
0.00 0.01 0.02 0.02 0.04 0.08 0.12 0.17 0.26 0.31 0.22 0.25 0.41 0.60 0.79 0.93 1.08 1.15 1.32 1.31 1.52 1.78 1.94 2.32 2.68 3.14 3.59 4.08 4.81 5.44 5.88 5.88 5.73 5.42 5.07 4.81 4.30 3.95 3.66 3.37 3.15 2.93 2.67 2.60
0.01 0.03 0.03 0.04 0.04 0.05 0.11 0.18 0.31 0.32 0.22 0.26 0.44 0.67 0.94 0.99 0.94 0.97 1.19 1.30 1.38 1.59 1.90 2.26 2.77 3.06 3.42 3.93 4.47 4.88 4.89 4.57 4.47 4.52 4.43 4.19 4.17 3.97 3.84 3.58 3.38 2.96 2.80 2.71
0.03 0.04 0.03 0.04 0.05 0.06 0.10 0.16 0.24 0.28 0.28 0.34 0.50 0.88 1.12 1.12 0.96 0.89 0.92 1.04 1.16 1.31 1.52 1.86 2.43 2.75 2.94 3.41 3.73 3.75 3.65 3.50 3.56 3.64 3.63 3.72 3.93 3.92 3.86 3.71 3.44 3.12 2.96 2.87
0.02 0.03 0.04 0.04 0.07 0.07 0.12 0.11 0.13 0.17 0.27 0.54 0.62 1.08 1.40 1.46 1.31 1.05 0.93 1.05 1.12 1.22 1.28 1.58 1.91 2.15 2.41 2.67 2.77 2.74 2.83 2.87 2.91 2.98 3.04 2.96 2.96 3.16 3.36 3.55 3.60 3.51 3.24 3.01
0.03 0.04 0.05 0.06 0.07 0.09 0.09 0.08 0.10 0.15 0.24 0.42 0.56 0.84 1.33 1.62 1.68 1.30 1.04 0.96 0.92 1.06 1.31 1.52 1.63 1.79 1.88 1.93 2.02 2.06 2.35 2.69 2.82 2.92 3.04 2.96 2.67 2.64 2.69 2.81 2.97 2.97 2.93 2.76
0.04 0.05 0.06 0.05 0.06 0.08 0.09 0.13 0.21 0.32 0.48 0.76 0.71 0.77 1.21 1.47 1.58 1.24 1.02 0.93 0.82 0.83 1.01 1.24 1.53 1.62 1.57 1.53 1.65 1.85 2.15 2.59 2.83 2.92 2.87 2.84 2.75 2.71 2.62 2.60 2.65 2.51 2.47 2.39
0.15 0.13 0.10 0.06 0.08 0.09 0.10 0.18 0.56 0.96 1.30 1.33 0.82 0.77 1.01 1.05 1.00 1.01 0.87 0.80 0.84 0.78 0.77 0.79 0.99 1.24 1.22 1.16 1.31 1.57 1.78 2.12 2.37 2.49 2.47 2.41 2.50 2.58 2.46 2.31 2.23 2.16 2.06 1.98
0.19 0.23 0.14 0.09 0.08 0.09 0.10 0.14 0.41 0.71 0.91 1.05 0.90 1.20 1.31 0.98 0.82 0.73 0.62 0.60 0.68 0.63 0.58 0.57 0.64 0.81 1.03 1.02 1.07 1.18 1.44 1.70 1.91 1.98 2.10 2.22 2.36 2.44 2.38 2.52 2.32 2.16 1.88 1.73
0.08 0.11 0.10 0.09 0.09 0.11 0.12 0.12 0.17 0.28 0.43 0.73 1.03 1.25 1.19 1.00 0.94 0.75 0.57 0.50 0.52 0.50 0.49 0.49 0.57 0.77 0.80 0.78 0.82 0.93 1.18 1.38 1.54 1.68 1.84 1.93 1.90 1.94 2.10 2.26 2.24 2.08 2.00 1.80
0.05 0.05 0.08 0.09 0.10 0.12 0.11 0.12 0.14 0.21 0.38 0.59 0.92 1.30 1.37 1.27 1.10 0.92 0.81 0.61 0.50 0.51 0.52 0.49 0.50 0.58 0.61 0.59 0.71 0.95 1.15 1.19 1.40 1.69 1.88 1.79 1.81 1.80 1.97 1.99 1.98 2.00 1.94 1.92
0.04 0.05 0.07 0.10 0.13 0.16 0.16 0.14 0.13 0.17 0.22 0.38 0.79 1.05 1.00 1.04 0.97 0.92 0.81 0.68 0.61 0.55 0.54 0.52 0.52 0.53 0.63 0.55 0.63 0.81 0.95 1.10 1.39 1.69 1.92 1.95 1.84 1.86 1.94 1.83 1.78 1.89 1.92 1.89
0.05 0.05 0.07 0.12 0.18 0.18 0.17 0.17 0.17 0.23 0.23 0.26 0.43 0.71 0.60 0.69 0.80 0.82 0.67 0.60 0.58 0.49 0.46 0.43 0.41 0.48 0.45 0.44 0.56 0.85 1.17 1.52 1.70 1.96 2.24 2.29 2.06 1.86 1.74 1.60 1.59 1.74 1.92 1.94
0.05 0.06 0.14 0.32 0.35 0.25 0.18 0.16 0.16 0.18 0.18 0.22 0.42 0.67 0.55 0.61 0.70 0.70 0.66 0.60 0.59 0.60 0.48 0.46 0.41 0.50 0.48 0.46 0.48 0.61 0.78 1.13 1.46 1.81 2.13 2.12 1.87 1.64 1.59 1.58 1.61 1.73 1.87 1.87
0.06 0.05 0.10 0.26 0.34 0.33 0.27 0.21 0.18 0.16 0.17 0.22 0.31 0.57 0.58 0.63 0.58 0.60 0.58 0.56 0.64 0.73 0.60 0.54 0.51 0.50 0.50 0.50 0.48 0.59 0.68 0.77 0.98 1.40 1.70 1.71 1.53 1.46 1.46 1.51 1.54 1.53 1.57 1.63
0.07 0.07 0.05 0.06 0.15 0.23 0.25 0.22 0.19 0.15 0.14 0.26 0.29 0.40 0.49 0.67 0.64 0.63 0.61 0.55 0.53 0.64 0.60 0.57 0.56 0.61 0.63 0.69 0.70 0.70 0.74 0.76 0.93 1.34 1.57 1.53 1.44 1.44 1.38 1.37 1.45 1.50 1.56 1.60
0.10 0.10 0.10 0.10 0.14 0.16 0.17 0.20 0.18 0.13 0.12 0.11 0.17 0.32 0.37 0.61 0.75 0.73 0.73 0.70 0.64 0.64 0.60 0.56 0.49 0.59 0.68 0.75 0.78 0.80 0.86 0.91 1.01 1.29 1.54 1.51 1.43 1.38 1.30 1.32 1.39 1.53 1.64 1.81
0.16 0.15 0.15 0.16 0.19 0.18 0.25 0.21 0.17 0.15 0.15 0.15 0.24 0.37 0.37 0.45 0.62 0.73 0.75 0.71 0.65 0.66 0.58 0.56 0.59 0.69 0.88 0.82 0.84 0.91 0.87 0.92 1.07 1.33 1.54 1.57 1.49 1.46 1.40 1.35 1.49 1.68 1.85 2.01
0.29 0.27 0.25 0.21 0.25 0.36 0.28 0.21 0.22 0.25 0.28 0.29 0.32 0.37 0.40 0.51 0.58 0.71 0.89 0.74 0.60 0.64 0.66 0.72 0.69 0.76 0.85 0.83 0.87 0.93 0.96 0.99 1.12 1.34 1.57 1.64 1.59 1.61 1.68 1.65 1.72 1.92 2.13 2.27
0.34 0.39 0.36 0.31 0.34 0.41 0.38 0.30 0.34 0.38 0.44 0.46 0.49 0.43 0.48 0.54 0.64 0.79 0.75 0.73 0.76 0.76 0.78 0.82 0.89 0.92 0.99 1.00 0.96 0.99 1.13 1.16 1.24 1.32 1.53 1.65 1.70 1.77 1.81 1.85 2.05 2.21 2.35 2.37
0.37 0.45 0.49 0.44 0.52 0.59 0.59 0.44 0.38 0.46 0.78 0.62 0.64 0.63 0.56 0.58 0.84 0.96 0.80 0.72 0.72 0.82 0.92 0.92 0.98 1.01 1.04 1.07 1.13 1.17 1.28 1.41 1.53 1.61 1.70 1.91 2.12 2.30 2.39 2.45 2.47 2.49 2.55 2.50
0.65 0.62 0.61 0.66 0.76 0.71 0.57 0.51 0.46 0.86 1.19 0.88 0.85 0.82 0.73 0.84 0.94 0.94 0.80 0.74 0.69 0.73 0.87 0.95 0.97 1.06 1.13 1.15 1.27 1.46 1.54 1.65 1.79 1.94 2.02 2.24 2.58 2.78 2.78 2.82 2.70 2.58 2.58 2.60
0.88 0.83 0.83 0.89 1.12 1.18 0.66 0.61 0.96 1.21 1.02 1.03 1.05 1.02 0.94 0.91 0.97 0.98 0.94 0.78 0.71 0.72 0.79 0.91 0.98 1.05 1.21 1.45 1.64 1.89 1.98 1.97 2.08 2.23 2.40 2.65 2.93 2.82 2.75 2.91 2.79 2.74 2.80 2.76
0.93 0.99 1.07 1.15 1.36 1.16 0.81 0.93 1.11 1.10 1.07 1.10 1.08 1.03 0.92 0.87 1.02 0.97 0.89 0.85 0.72 0.70 0.77 0.87 0.96 1.11 1.28 1.55 1.95 2.18 2.22 2.34 2.38 2.46 2.61 2.72 2.80 2.93 3.06 3.12 3.00 2.89 2.86 2.78
1.11 1.01 1.19 1.41 1.48 1.24 1.08 1.07 1.04 1.07 1.09 1.05 0.98 0.93 0.93 0.88 0.90 0.89 0.82 0.80 0.74 0.74 0.82 0.88 0.97 1.14 1.40 1.66 2.00 2.14 2.19 2.24 2.26 2.31 2.32 2.41 2.56 2.68 2.79 3.05 3.10 2.98 2.81 2.70
1.32 1.22 1.43 1.81 1.89 1.74 1.59 1.36 1.20 1.17 1.12 1.16 1.12 1.03 0.99 0.94 0.89 0.82 0.78 0.77 0.77 0.77 0.87 0.96 1.06 1.17 1.31 1.54 1.76 1.85 1.99 2.06 2.22 2.27 2.20 2.16 2.20 2.34 2.46 2.59 2.68 2.63 2.60 2.41
1.45 1.51 1.75 2.11 1.86 1.80 1.92 1.66 1.43 1.36 1.34 1.36 1.37 1.33 1.20 1.11 1.04 0.95 0.86 0.78 0.75 0.75 0.85 0.96 1.08 1.23 1.35 1.51 1.69 1.79 1.92 1.99 2.06 2.08 2.01 2.00 2.01 2.10 2.16 2.17 2.09 1.93 1.84 1.69

GEFSCGP_prec_meanprecacc_264.txt.gz
Total_Precipitation_Accumulation
0.00 0.01 0.02 0.03 0.04 0.09 0.13 0.18 0.26 0.31 0.22 0.26 0.42 0.61 0.80 0.94 1.08 1.16 1.33 1.31 1.52 1.78 1.95 2.33 2.69 3.14 3.59 4.09 4.82 5.46 5.91 5.93 5.78 5.47 5.12 4.86 4.35 4.01 3.73 3.45 3.25 3.01 2.73 2.66
0.01 0.03 0.03 0.04 0.04 0.06 0.11 0.19 0.32 0.32 0.22 0.27 0.45 0.69 0.94 1.00 0.95 0.98 1.19 1.30 1.39 1.60 1.90 2.26 2.77 3.06 3.42 3.93 4.48 4.90 4.92 4.61 4.52 4.58 4.49 4.24 4.22 4.02 3.89 3.64 3.43 3.01 2.84 2.75
0.03 0.04 0.03 0.04 0.06 0.06 0.10 0.17 0.25 0.28 0.29 0.35 0.51 0.89 1.13 1.13 0.97 0.89 0.93 1.05 1.17 1.31 1.52 1.87 2.44 2.75 2.94 3.41 3.74 3.77 3.68 3.52 3.60 3.72 3.71 3.76 3.96 3.96 3.91 3.76 3.48 3.16 3.00 2.91
0.02 0.03 0.04 0.04 0.07 0.07 0.12 0.11 0.14 0.17 0.28 0.55 0.63 1.09 1.40 1.47 1.32 1.05 0.94 1.05 1.12 1.22 1.28 1.58 1.92 2.15 2.42 2.68 2.77 2.75 2.84 2.89 2.95 3.05 3.12 2.99 2.99 3.18 3.38 3.58 3.63 3.54 3.28 3.04
0.03 0.04 0.05 0.06 0.07 0.09 0.09 0.08 0.10 0.16 0.25 0.43 0.57 0.85 1.34 1.63 1.69 1.31 1.05 0.96 0.92 1.06 1.31 1.52 1.64 1.80 1.89 1.93 2.02 2.07 2.36 2.70 2.85 2.97 3.09 2.98 2.68 2.66 2.70 2.83 3.00 3.00 2.96 2.79
0.04 0.05 0.06 0.05 0.06 0.08 0.09 0.13 0.22 0.33 0.49 0.76 0.72 0.78 1.22 1.47 1.58 1.25 1.03 0.94 0.82 0.83 1.01 1.24 1.53 1.62 1.58 1.54 1.66 1.86 2.16 2.60 2.85 2.94 2.89 2.85 2.76 2.72 2.64 2.63 2.69 2.57 2.53 2.44
0.15 0.13 0.10 0.06 0.08 0.09 0.10 0.19 0.57 0.98 1.31 1.34 0.83 0.78 1.02 1.06 1.01 1.02 0.88 0.81 0.85 0.78 0.78 0.79 0.99 1.25 1.22 1.17 1.34 1.59 1.78 2.13 2.38 2.50 2.48 2.42 2.51 2.59 2.48 2.35 2.28 2.21 2.10 2.01
0.19 0.23 0.14 0.09 0.08 0.09 0.10 0.15 0.42 0.72 0.92 1.05 0.90 1.20 1.32 0.99 0.83 0.74 0.63 0.60 0.68 0.63 0.58 0.57 0.65 0.82 1.04 1.04 1.09 1.20 1.45 1.72 1.93 1.99 2.11 2.23 2.37 2.45 2.39 2.54 2.35 2.19 1.91 1.76
0.08 0.11 0.10 0.09 0.09 0.11 0.12 0.12 0.17 0.28 0.44 0.74 1.04 1.26 1.21 1.02 0.95 0.76 0.58 0.51 0.52 0.51 0.50 0.50 0.57 0.77 0.80 0.80 0.84 0.95 1.20 1.41 1.56 1.70 1.87 1.95 1.93 1.96 2.12 2.28 2.27 2.10 2.02 1.82
0.05 0.05 0.08 0.09 0.10 0.12 0.12 0.12 0.14 0.21 0.38 0.60 0.93 1.31 1.39 1.29 1.11 0.93 0.81 0.61 0.50 0.51 0.52 0.49 0.50 0.59 0.63 0.63 0.74 0.98 1.19 1.22 1.42 1.72 1.93 1.84 1.85 1.83 1.99 2.01 2.00 2.02 1.97 1.95
0.04 0.05 0.07 0.10 0.13 0.16 0.16 0.14 0.13 0.17 0.22 0.38 0.79 1.06 1.01 1.05 0.98 0.93 0.81 0.68 0.62 0.56 0.55 0.54 0.54 0.55 0.66 0.58 0.66 0.84 0.98 1.13 1.42 1.73 1.96 1.99 1.89 1.91 1.97 1.85 1.80 1.92 1.94 1.92
0.05 0.05 0.07 0.12 0.18 0.18 0.17 0.17 0.17 0.23 0.23 0.26 0.43 0.72 0.61 0.70 0.81 0.83 0.67 0.61 0.59 0.49 0.47 0.44 0.43 0.50 0.48 0.47 0.57 0.88 1.20 1.55 1.73 2.00 2.31 2.37 2.14 1.94 1.80 1.64 1.63 1.78 1.95 1.98
0.05 0.06 0.14 0.32 0.35 0.25 0.18 0.16 0.16 0.18 0.18 0.22 0.43 0.68 0.56 0.62 0.71 0.71 0.67 0.60 0.59 0.61 0.49 0.47 0.42 0.51 0.50 0.48 0.50 0.64 0.81 1.17 1.50 1.85 2.20 2.20 1.94 1.71 1.65 1.64 1.66 1.77 1.91 1.91
0.06 0.05 0.10 0.26 0.34 0.33 0.27 0.21 0.18 0.16 0.18 0.22 0.31 0.57 0.59 0.64 0.58 0.60 0.58 0.57 0.65 0.74 0.61 0.55 0.52 0.50 0.52 0.52 0.50 0.61 0.72 0.80 1.01 1.46 1.77 1.78 1.61 1.52 1.52 1.55 1.58 1.57 1.62 1.66
0.07 0.07 0.05 0.06 0.15 0.23 0.25 0.22 0.19 0.16 0.14 0.26 0.30 0.40 0.50 0.67 0.64 0.64 0.62 0.56 0.54 0.65 0.61 0.57 0.57 0.62 0.64 0.70 0.71 0.72 0.75 0.78 0.96 1.41 1.64 1.60 1.52 1.50 1.42 1.41 1.49 1.55 1.61 1.65
0.10 0.10 0.10 0.10 0.14 0.16 0.17 0.20 0.18 0.13 0.12 0.11 0.17 0.33 0.38 0.61 0.76 0.74 0.74 0.70 0.64 0.64 0.60 0.57 0.50 0.60 0.70 0.76 0.79 0.81 0.88 0.93 1.05 1.35 1.58 1.55 1.47 1.42 1.33 1.36 1.43 1.57 1.69 1.85
0.16 0.15 0.15 0.16 0.19 0.18 0.25 0.21 0.17 0.15 0.15 0.15 0.24 0.38 0.37 0.45 0.63 0.74 0.76 0.71 0.65 0.66 0.58 0.56 0.60 0.69 0.88 0.83 0.85 0.92 0.88 0.94 1.12 1.40 1.58 1.60 1.52 1.48 1.43 1.38 1.52 1.71 1.89 2.06
0.29 0.27 0.25 0.21 0.25 0.36 0.28 0.21 0.22 0.25 0.28 0.29 0.32 0.37 0.40 0.52 0.59 0.72 0.90 0.75 0.60 0.64 0.67 0.74 0.71 0.77 0.86 0.84 0.88 0.94 0.98 1.02 1.17 1.39 1.59 1.66 1.60 1.63 1.71 1.72 1.78 1.97 2.17 2.31
0.34 0.39 0.36 0.31 0.34 0.41 0.38 0.30 0.35 0.39 0.45 0.47 0.49 0.43 0.48 0.55 0.65 0.79 0.76 0.73 0.77 0.77 0.79 0.83 0.90 0.94 1.01 1.01 0.96 1.00 1.15 1.19 1.27 1.34 1.55 1.67 1.71 1.79 1.82 1.89 2.12 2.30 2.44 2.46
0.37 0.46 0.49 0.44 0.52 0.59 0.59 0.44 0.38 0.46 0.78 0.62 0.64 0.63 0.56 0.59 0.84 0.96 0.81 0.73 0.72 0.83 0.93 0.94 1.00 1.04 1.06 1.09 1.14 1.18 1.30 1.43 1.56 1.64 1.73 1.93 2.13 2.32 2.40 2.46 2.50 2.56 2.65 2.58
0.65 0.62 0.61 0.66 0.77 0.72 0.57 0.51 0.46 0.86 1.19 0.88 0.85 0.83 0.73 0.84 0.94 0.94 0.81 0.75 0.70 0.74 0.88 0.96 1.00 1.09 1.16 1.16 1.29 1.48 1.58 1.69 1.85 1.99 2.06 2.26 2.59 2.80 2.80 2.84 2.73 2.62 2.63 2.65
0.88 0.83 0.84 0.89 1.12 1.19 0.66 0.62 0.97 1.21 1.02 1.03 1.05 1.02 0.94 0.92 0.98 0.99 0.95 0.80 0.73 0.73 0.80 0.92 1.01 1.08 1.25 1.47 1.66 1.91 2.01 2.01 2.13 2.28 2.43 2.67 2.94 2.84 2.76 2.92 2.80 2.76 2.81 2.78
0.94 0.99 1.07 1.16 1.37 1.16 0.81 0.93 1.11 1.10 1.07 1.10 1.08 1.03 0.93 0.88 1.03 0.98 0.90 0.87 0.73 0.71 0.78 0.87 0.97 1.14 1.33 1.60 1.98 2.22 2.27 2.39 2.42 2.50 2.63 2.74 2.83 2.96 3.08 3.14 3.02 2.91 2.87 2.79
1.12 1.02 1.20 1.42 1.49 1.25 1.09 1.08 1.04 1.08 1.10 1.06 0.99 0.94 0.94 0.90 0.91 0.90 0.83 0.81 0.76 0.76 0.84 0.89 0.99 1.18 1.46 1.72 2.05 2.20 2.25 2.30 2.32 2.35 2.35 2.44 2.59 2.72 2.83 3.08 3.12 3.00 2.83 2.72
1.33 1.23 1.45 1.83 1.91 1.76 1.61 1.38 1.21 1.18 1.14 1.18 1.14 1.05 1.01 0.96 0.91 0.83 0.80 0.79 0.79 0.79 0.90 0.99 1.09 1.20 1.35 1.59 1.81 1.90 2.04 2.11 2.27 2.31 2.23 2.19 2.23 2.38 2.51 2.62 2.71 2.65 2.61 2.43
1.46 1.52 1.77 2.14 1.88 1.82 1.95 1.69 1.45 1.39 1.37 1.40 1.40 1.36 1.23 1.13 1.06 0.97 0.88 0.81 0.78 0.77 0.87 0.98 1.11 1.26 1.40 1.56 1.74 1.82 1.96 2.03 2.10 2.11 2.03 2.03 2.03 2.12 2.18 2.19 2.12 1.96 1.87 1.71